Strait of Georgia - north of Nanaimo: Past 24 Hour Conditions

 

Victoria Int'l Airport

03:00 AM PDT 19 April 2014
This table is a summary of hourly weather conditions for the past 24 hours.
Date / Time
(PDT)
Wind(knots) Conditions Visibility(km) Pressure(kPa) Air tempC) Relative humidity(%) Dew pointC)
19 April 2014
3:00 W 2 Cloudy 48 101.1 6 92 5
2:00 WSW 4 Mostly Cloudy 48 101.2 5 95 4
1:00 W 2 Mostly Cloudy 48 101.3 6 90 4
0:00 WSW 3 Mostly Cloudy 48 101.4 5 93 4
18 April 2014
23:00 N 1 Mostly Cloudy 48 101.4 5 90 3
22:00 NNE 3 Mostly Cloudy 48 101.5 6 84 4
21:00 ESE 4 Cloudy 48 101.6 9 72 4
20:00 SE 6 Cloudy 48 101.6 10 69 4
19:00 SSE 10 Partly Cloudy 48 101.7 11 59 3
18:00 SE 12 gust 18 Mainly Sunny 48 101.7 11 64 4
17:00 ESE 9 Partly Cloudy 48 101.8 11 71 6
16:00 ESE 7 Partly Cloudy 48 101.8 12 56 4
15:00 SE 6 Mainly Sunny 48 101.9 13 59 5
14:00 ESE 6 Mostly Cloudy 48 101.9 12 57 3
13:00 ESE 7 Mostly Cloudy 48 101.9 12 59 4
12:00 E 5 Mostly Cloudy 48 101.9 11 58 3
11:00 ESE 2 Partly Cloudy 48 101.9 11 54 2
10:00 WNW 5 Partly Cloudy 48 101.8 11 59 3
9:00 W 8 Mainly Sunny 48 101.8 9 62 2
8:00 W 10 Mainly Sunny 48 101.7 8 66 2
7:00 W 8 Mainly Sunny 48 101.6 7 71 2
6:00 WSW 9 Mainly Clear 48 101.6 6 72 2
5:00 WSW 11 gust 20 Mainly Clear 48 101.5 7 68 1
4:00 WSW 10 Mainly Clear 48 101.4 7 67 1
3:00 WSW 6 Mainly Clear 48 101.3 7 68 1
 
Map of Pacific - Georgia Basin marine weather areas Tsawwassen Ferry Terminal Sentry Shoal - 46131 Halibut Bank - 46146 La Perouse Bank - 46206 Discovery Island Esquimalt Harbour Kelp Reefs Malahat Race Rocks Lightstation Saturna Island Sheringham Point University of Victoria Victoria Gonzales Victoria Int'l Airport Ballenas Islands Campbell River Airport Comox Airport Entrance Island Fanny Island Nanaimo Airport Sisters Islets Estevan Point Tofino Airport Grief Point Powell River Airport Sechelt Point Atkinson Sand Heads Lightstation Vancouver Harbour Vancouver Int'l Airport West Vancouver Port Alberni Howe Sound - Pam Rocks Squamish Airport